QPF
0.00 0.00 0.00 0.00 0.00 0.00 0.00 0.00 0.00 0.00 0.00 0.00 0.00 0.01 0.00 0.00 0.00 0.00 0.00 0.00 0.01 0.02 0.00 0.00 0.00 0.00 0.01 0.01 0.01 0.01 0.00 0.00 0.00 0.00 0.00 0.00 0.00 0.00 0.00 0.01 0.02 0.01 0.01
0.00 0.00 0.00 0.00 0.00 0.00 0.00 0.00 0.00 0.00 0.00 0.00 0.00 0.00 0.00 0.00 0.00 0.00 0.00 0.00 0.02 0.02 0.01 0.01 0.00 0.01 0.01 0.00 0.00 0.00 0.00 0.00 0.00 0.00 0.00 0.00 0.01 0.01 0.00 0.00 0.01 0.02 0.01
0.00 0.00 0.00 0.00 0.00 0.00 0.00 0.00 0.00 0.00 0.00 0.00 0.00 0.00 0.00 0.02 0.02 0.00 0.00 0.00 0.00 0.01 0.01 0.01 0.01 0.00 0.00 0.00 0.00 0.00 0.00 0.00 0.00 0.00 0.00 0.00 0.01 0.00 0.01 0.00 0.00 0.00 0.01
0.00 0.00 0.00 0.00 0.00 0.00 0.00 0.00 0.00 0.00 0.00 0.00 0.01 0.02 0.02 0.02 0.00 0.00 0.00 0.01 0.00 0.00 0.00 0.00 0.00 0.00 0.00 0.00 0.00 0.00 0.00 0.00 0.00 0.00 0.00 0.01 0.01 0.00 0.01 0.00 0.00 0.00 0.01
0.00 0.00 0.00 0.00 0.00 0.00 0.00 0.00 0.00 0.00 0.00 0.02 0.03 0.02 0.01 0.00 0.00 0.00 0.00 0.00 0.00 0.00 0.00 0.00 0.00 0.00 0.00 0.00 0.00 0.00 0.00 0.00 0.00 0.00 0.00 0.01 0.00 0.00 0.00 0.00 0.00 0.00 0.00
0.00 0.00 0.00 0.01 0.00 0.00 0.00 0.00 0.00 0.01 0.03 0.01 0.02 0.00 0.00 0.00 0.00 0.00 0.00 0.00 0.00 0.00 0.00 0.00 0.00 0.00 0.00 0.00 0.00 0.00 0.00 0.00 0.00 0.00 0.00 0.00 0.00 0.00 0.00 0.00 0.00 0.00 0.00
0.00 0.00 0.01 0.00 0.01 0.01 0.00 0.00 0.01 0.04 0.04 0.01 0.00 0.00 0.00 0.00 0.00 0.00 0.00 0.00 0.00 0.00 0.00 0.00 0.00 0.00 0.00 0.00 0.00 0.00 0.00 0.00 0.00 0.00 0.00 0.00 0.00 0.00 0.00 0.00 0.00 0.00 0.00
0.00 0.01 0.02 0.02 0.01 0.02 0.01 0.01 0.03 0.05 0.02 0.00 0.00 0.00 0.00 0.00 0.00 0.00 0.00 0.00 0.00 0.00 0.00 0.00 0.00 0.00 0.00 0.00 0.00 0.00 0.00 0.00 0.00 0.00 0.00 0.00 0.00 0.00 0.00 0.00 0.00 0.00 0.00
0.00 0.00 0.03 0.03 0.01 0.02 0.03 0.02 0.03 0.02 0.00 0.00 0.00 0.00 0.00 0.00 0.00 0.00 0.00 0.00 0.00 0.00 0.00 0.00 0.00 0.00 0.00 0.00 0.00 0.00 0.00 0.00 0.00 0.00 0.00 0.00 0.00 0.00 0.00 0.01 0.01 0.01 0.01
0.01 0.02 0.06 0.19 0.08 0.00 0.01 0.01 0.01 0.00 0.00 0.00 0.00 0.00 0.00 0.00 0.00 0.00 0.00 0.00 0.00 0.00 0.00 0.00 0.00 0.00 0.00 0.00 0.00 0.00 0.00 0.00 0.00 0.00 0.00 0.00 0.00 0.00 0.01 0.04 0.01 0.01 0.00
0.00 0.04 0.11 0.19 0.24 0.13 0.01 0.00 0.00 0.00 0.00 0.00 0.00 0.00 0.00 0.00 0.00 0.00 0.00 0.00 0.00 0.00 0.00 0.00 0.00 0.00 0.00 0.00 0.00 0.00 0.00 0.00 0.00 0.00 0.00 0.00 0.02 0.06 0.05 0.02 0.01 0.00 0.00
0.00 0.01 0.05 0.12 0.22 0.15 0.02 0.00 0.00 0.00 0.00 0.00 0.00 0.00 0.00 0.00 0.00 0.00 0.00 0.00 0.00 0.00 0.00 0.00 0.00 0.00 0.00 0.00 0.00 0.00 0.00 0.00 0.00 0.00 0.00 0.03 0.05 0.03 0.01 0.00 0.00 0.00 0.00
0.00 0.00 0.04 0.12 0.17 0.12 0.04 0.04 0.00 0.00 0.00 0.00 0.00 0.00 0.00 0.00 0.00 0.00 0.00 0.00 0.00 0.00 0.00 0.00 0.00 0.00 0.00 0.00 0.00 0.00 0.00 0.00 0.00 0.00 0.00 0.01 0.01 0.00 0.00 0.00 0.00 0.00 0.00
0.00 0.00 0.01 0.05 0.11 0.14 0.10 0.09 0.03 0.00 0.00 0.00 0.00 0.00 0.00 0.00 0.00 0.00 0.00 0.00 0.00 0.00 0.00 0.00 0.00 0.00 0.00 0.00 0.00 0.00 0.00 0.00 0.00 0.00 0.00 0.00 0.00 0.00 0.00 0.00 0.00 0.00 0.00
0.00 0.00 0.00 0.01 0.04 0.10 0.08 0.08 0.05 0.01 0.00 0.00 0.00 0.00 0.00 0.00 0.00 0.00 0.00 0.00 0.00 0.00 0.00 0.00 0.00 0.00 0.00 0.00 0.00 0.00 0.00 0.00 0.00 0.00 0.00 0.00 0.00 0.00 0.00 0.00 0.00 0.00 0.00
0.00 0.00 0.00 0.00 0.01 0.02 0.08 0.09 0.06 0.03 0.00 0.00 0.00 0.00 0.00 0.00 0.00 0.00 0.00 0.00 0.00 0.00 0.00 0.00 0.00 0.00 0.00 0.00 0.00 0.00 0.00 0.00 0.00 0.00 0.00 0.00 0.00 0.00 0.00 0.00 0.00 0.00 0.00
0.00 0.00 0.00 0.00 0.00 0.00 0.03 0.08 0.10 0.06 0.02 0.00 0.00 0.00 0.00 0.00 0.00 0.00 0.00 0.00 0.00 0.00 0.00 0.00 0.00 0.00 0.00 0.00 0.00 0.00 0.00 0.00 0.00 0.00 0.00 0.00 0.00 0.00 0.00 0.00 0.00 0.00 0.00
0.00 0.00 0.00 0.00 0.00 0.00 0.01 0.05 0.07 0.05 0.03 0.01 0.00 0.00 0.00 0.00 0.00 0.00 0.00 0.00 0.00 0.00 0.00 0.00 0.00 0.00 0.00 0.00 0.00 0.00 0.00 0.00 0.00 0.00 0.00 0.00 0.00 0.00 0.00 0.00 0.00 0.00 0.00
0.00 0.00 0.00 0.00 0.00 0.00 0.00 0.01 0.04 0.04 0.02 0.01 0.00 0.00 0.00 0.00 0.00 0.00 0.00 0.00 0.00 0.00 0.00 0.00 0.00 0.00 0.00 0.00 0.00 0.00 0.00 0.00 0.00 0.00 0.00 0.00 0.00 0.00 0.00 0.00 0.00 0.00 0.00
0.00 0.00 0.00 0.00 0.00 0.00 0.00 0.00 0.01 0.03 0.02 0.01 0.01 0.00 0.00 0.00 0.00 0.00 0.00 0.00 0.00 0.00 0.00 0.00 0.00 0.00 0.00 0.00 0.00 0.00 0.00 0.00 0.00 0.00 0.00 0.00 0.00 0.00 0.00 0.00 0.00 0.00 0.00
0.00 0.00 0.00 0.00 0.00 0.00 0.00 0.00 0.00 0.02 0.02 0.01 0.00 0.00 0.00 0.00 0.00 0.00 0.00 0.00 0.00 0.00 0.00 0.00 0.00 0.00 0.00 0.00 0.00 0.00 0.00 0.00 0.00 0.00 0.00 0.00 0.00 0.00 0.00 0.00 0.00 0.00 0.00
0.00 0.00 0.00 0.00 0.00 0.00 0.00 0.00 0.00 0.01 0.01 0.00 0.00 0.00 0.00 0.00 0.00 0.00 0.00 0.00 0.00 0.00 0.00 0.00 0.00 0.00 0.00 0.00 0.00 0.00 0.00 0.00 0.00 0.00 0.00 0.00 0.00 0.00 0.00 0.00 0.00 0.00 0.00
0.00 0.01 0.00 0.00 0.00 0.00 0.00 0.00 0.00 0.00 0.00 0.00 0.00 0.00 0.00 0.00 0.00 0.00 0.00 0.00 0.00 0.00 0.00 0.00 0.00 0.00 0.00 0.00 0.00 0.00 0.00 0.00 0.00 0.00 0.00 0.00 0.00 0.00 0.00 0.00 0.00 0.00 0.00
0.00 0.02 0.00 0.01 0.01 0.00 0.00 0.00 0.00 0.00 0.00 0.00 0.00 0.00 0.00 0.00 0.00 0.00 0.00 0.00 0.00 0.00 0.00 0.00 0.00 0.00 0.00 0.00 0.00 0.00 0.00 0.00 0.00 0.00 0.00 0.00 0.00 0.00 0.00 0.00 0.00 0.00 0.00
0.00 0.02 0.00 0.01 0.01 0.00 0.00 0.00 0.00 0.00 0.00 0.00 0.00 0.00 0.00 0.00 0.00 0.00 0.00 0.00 0.00 0.00 0.00 0.00 0.00 0.00 0.00 0.00 0.00 0.00 0.00 0.00 0.00 0.00 0.00 0.00 0.00 0.00 0.00 0.00 0.00 0.00 0.00
0.01 0.02 0.00 0.00 0.01 0.01 0.00 0.00 0.00 0.00 0.00 0.00 0.00 0.00 0.00 0.00 0.00 0.00 0.00 0.00 0.00 0.00 0.00 0.00 0.00 0.00 0.00 0.00 0.00 0.00 0.00 0.00 0.00 0.00 0.00 0.00 0.00 0.00 0.00 0.00 0.00 0.00 0.00
MSLP
1010.15 1010.55 1010.98 1011.44 1011.84 1012.12 1012.40 1012.65 1013.00 1013.32 1013.58 1013.73 1014.02 1014.25 1014.53 1014.72 1014.85 1015.03 1015.17 1015.35 1015.47 1015.61 1015.70 1015.89 1015.96 1016.07 1016.08 1016.35 1016.49 1016.61 1016.74 1016.84 1016.89 1016.96 1017.06 1017.03 1016.95 1017.01 1017.03 1017.04 1016.81 1016.87 1016.93
1009.63 1010.46 1011.13 1011.40 1011.83 1012.18 1012.50 1012.74 1013.04 1013.34 1013.67 1013.85 1014.11 1014.32 1014.58 1014.78 1014.90 1015.11 1015.32 1015.50 1015.67 1015.73 1015.92 1015.98 1016.17 1016.23 1016.32 1016.57 1016.73 1016.85 1016.95 1017.00 1017.00 1017.11 1017.17 1017.14 1017.03 1017.09 1017.18 1017.17 1017.13 1017.12 1017.12
1009.58 1010.20 1011.20 1011.60 1011.79 1012.23 1012.47 1012.84 1013.12 1013.39 1013.75 1014.06 1014.26 1014.41 1014.59 1014.82 1015.06 1015.24 1015.45 1015.64 1015.79 1015.96 1016.10 1016.26 1016.41 1016.55 1016.70 1016.82 1016.94 1017.02 1017.09 1017.05 1016.88 1016.97 1017.04 1017.12 1017.21 1017.27 1017.40 1017.45 1017.41 1017.39 1017.39
1009.30 1009.97 1010.94 1011.64 1011.93 1012.27 1012.57 1012.91 1013.23 1013.50 1013.76 1014.08 1014.30 1014.50 1014.72 1014.94 1015.15 1015.38 1015.54 1015.67 1015.87 1016.12 1016.39 1016.60 1016.75 1016.88 1016.95 1017.04 1017.09 1017.12 1017.15 1017.08 1016.85 1016.75 1016.97 1017.17 1017.18 1017.37 1017.51 1017.56 1017.65 1017.69 1017.57
1009.09 1009.73 1010.63 1011.55 1011.96 1012.34 1012.71 1013.00 1013.34 1013.60 1013.81 1014.03 1014.42 1014.69 1014.90 1015.11 1015.31 1015.54 1015.75 1015.98 1016.04 1016.30 1016.66 1016.88 1017.00 1017.09 1017.13 1017.22 1017.24 1017.25 1017.25 1017.12 1016.95 1016.96 1016.83 1017.14 1017.41 1017.62 1017.76 1017.88 1017.90 1017.90 1017.88
1009.14 1009.46 1010.42 1011.34 1011.90 1012.25 1012.68 1013.04 1013.33 1013.62 1013.82 1014.15 1014.54 1014.83 1015.18 1015.46 1015.66 1015.83 1016.00 1016.16 1016.32 1016.52 1016.70 1016.91 1017.07 1017.17 1017.27 1017.35 1017.37 1017.37 1017.31 1017.11 1016.99 1016.87 1016.88 1017.35 1017.68 1017.83 1018.03 1018.10 1018.06 1018.02 1018.04
1009.88 1009.31 1010.19 1011.00 1011.75 1012.10 1012.51 1012.95 1013.29 1013.56 1013.83 1014.21 1014.48 1014.95 1015.28 1015.59 1015.85 1016.10 1016.23 1016.28 1016.44 1016.62 1016.79 1016.93 1017.07 1017.24 1017.36 1017.43 1017.47 1017.47 1017.38 1017.20 1017.07 1017.02 1017.19 1017.53 1017.86 1018.06 1018.22 1018.27 1018.22 1018.21 1018.27
1010.77 1010.45 1010.40 1010.87 1011.44 1011.96 1012.29 1012.71 1013.24 1013.58 1013.83 1014.16 1014.66 1015.05 1015.32 1015.68 1016.01 1016.23 1016.41 1016.47 1016.51 1016.66 1016.84 1017.01 1017.13 1017.32 1017.46 1017.57 1017.61 1017.64 1017.57 1017.40 1017.06 1017.20 1017.42 1017.78 1017.99 1018.15 1018.37 1018.40 1018.37 1018.39 1018.41
1010.99 1010.97 1010.85 1011.00 1011.46 1011.87 1012.26 1012.62 1013.11 1013.58 1013.90 1014.30 1014.80 1015.24 1015.53 1015.71 1016.01 1016.34 1016.52 1016.61 1016.67 1016.77 1016.93 1017.10 1017.24 1017.37 1017.57 1017.75 1017.80 1017.80 1017.75 1017.61 1017.26 1017.49 1017.76 1018.18 1018.22 1018.23 1018.38 1018.50 1018.58 1018.69 1018.68
1011.26 1011.08 1011.03 1011.07 1011.38 1011.82 1012.34 1012.63 1013.01 1013.48 1013.95 1014.53 1014.86 1015.35 1015.73 1015.94 1016.09 1016.39 1016.65 1016.79 1016.82 1016.87 1017.00 1017.17 1017.31 1017.47 1017.68 1017.86 1017.90 1017.85 1017.75 1017.70 1017.71 1018.14 1018.42 1018.45 1018.32 1018.32 1018.51 1018.67 1018.86 1018.92 1019.08
1011.54 1011.44 1011.26 1011.14 1011.47 1011.60 1012.30 1012.73 1012.94 1013.43 1013.97 1014.59 1015.03 1015.40 1015.81 1016.12 1016.33 1016.51 1016.70 1016.92 1017.00 1017.02 1017.12 1017.23 1017.41 1017.63 1017.78 1017.88 1017.93 1017.90 1017.92 1017.92 1018.25 1018.64 1018.78 1018.53 1018.51 1018.62 1018.79 1018.95 1019.17 1019.37 1019.52
1011.33 1011.44 1011.45 1011.40 1011.60 1011.77 1012.10 1012.74 1012.95 1013.33 1013.75 1014.46 1015.03 1015.44 1015.60 1015.90 1016.16 1016.68 1016.94 1016.97 1017.13 1017.27 1017.29 1017.31 1017.48 1017.70 1017.80 1017.86 1017.88 1017.96 1018.10 1018.12 1018.66 1019.07 1019.18 1018.85 1018.80 1018.94 1019.17 1019.36 1019.64 1019.73 1019.83
1011.03 1011.13 1011.42 1011.42 1011.44 1011.82 1011.87 1012.41 1012.77 1013.04 1013.62 1013.97 1014.57 1015.18 1015.43 1015.74 1016.26 1016.69 1017.20 1017.32 1017.44 1017.46 1017.54 1017.53 1017.55 1017.69 1017.91 1017.86 1017.86 1017.98 1018.21 1018.45 1018.99 1019.49 1019.71 1019.26 1019.10 1019.29 1019.57 1019.97 1020.01 1020.03 1020.09
1011.02 1011.00 1010.99 1011.30 1011.74 1011.55 1011.68 1011.99 1012.50 1012.46 1012.96 1013.40 1013.99 1014.51 1015.07 1015.68 1016.12 1016.56 1016.84 1017.05 1017.26 1017.39 1017.49 1017.48 1017.64 1017.48 1017.50 1017.73 1017.88 1018.18 1018.48 1018.71 1019.26 1019.82 1020.09 1019.94 1019.80 1019.77 1019.89 1020.37 1020.42 1020.40 1020.35
1010.66 1010.75 1010.81 1011.04 1011.29 1011.91 1011.82 1011.78 1012.11 1011.98 1012.10 1012.62 1013.46 1014.11 1014.57 1015.36 1015.93 1015.98 1016.25 1016.48 1016.76 1016.93 1017.12 1017.24 1017.39 1017.61 1017.85 1017.98 1018.12 1018.37 1018.69 1018.92 1019.31 1020.01 1020.34 1020.35 1020.26 1020.24 1020.42 1020.64 1020.71 1020.74 1020.69
1010.13 1010.29 1010.32 1010.68 1011.07 1011.40 1011.69 1011.98 1011.97 1011.49 1011.52 1012.24 1013.18 1013.96 1014.47 1015.06 1015.49 1015.79 1016.18 1016.46 1016.59 1016.83 1017.09 1017.33 1017.51 1017.82 1018.03 1018.24 1018.49 1018.65 1018.92 1019.13 1019.36 1020.05 1020.45 1020.67 1020.68 1020.77 1020.86 1020.96 1021.04 1021.04 1020.98
1009.46 1009.61 1009.84 1009.98 1010.60 1011.17 1011.67 1012.14 1013.11 1012.48 1011.42 1011.75 1012.82 1013.59 1014.26 1014.83 1015.35 1015.62 1016.25 1016.71 1016.67 1016.69 1017.09 1017.49 1017.74 1017.97 1018.33 1018.42 1018.92 1018.96 1019.17 1019.34 1019.55 1019.92 1020.62 1020.83 1021.00 1021.07 1021.17 1021.28 1021.35 1021.31 1021.25
1008.83 1009.18 1009.33 1009.47 1010.12 1011.16 1011.72 1012.32 1012.97 1013.50 1012.56 1012.55 1012.50 1012.81 1013.91 1014.64 1015.15 1015.69 1016.41 1016.87 1016.75 1016.85 1017.23 1017.83 1018.25 1018.45 1018.64 1018.82 1019.11 1019.31 1019.42 1019.48 1019.61 1019.95 1020.44 1020.82 1021.17 1021.28 1021.31 1021.47 1021.64 1021.68 1021.57
1008.35 1008.61 1008.96 1009.32 1009.99 1010.97 1011.65 1012.36 1013.05 1012.98 1012.83 1014.15 1012.83 1012.71 1013.54 1014.30 1014.88 1015.70 1016.39 1016.91 1016.96 1017.11 1017.53 1017.98 1018.46 1018.62 1018.91 1019.12 1019.30 1019.50 1019.68 1019.83 1019.85 1020.08 1020.59 1020.97 1021.15 1021.33 1021.59 1021.50 1021.55 1021.67 1021.70
1007.58 1008.02 1008.44 1009.08 1009.71 1010.67 1011.51 1012.50 1013.15 1013.53 1012.39 1014.84 1014.90 1013.78 1013.62 1014.14 1014.77 1015.64 1016.35 1016.98 1017.27 1017.48 1017.91 1018.32 1018.80 1018.96 1019.37 1019.41 1019.49 1019.84 1019.88 1019.99 1019.98 1020.44 1020.65 1020.82 1021.18 1021.32 1021.42 1021.52 1021.68 1021.77 1021.80
1006.99 1007.46 1008.14 1008.93 1009.80 1010.49 1011.23 1011.97 1012.73 1012.86 1013.40 1014.34 1015.12 1015.02 1014.38 1014.30 1014.98 1015.76 1016.56 1016.84 1017.39 1017.70 1018.09 1018.69 1019.11 1019.56 1019.88 1019.81 1020.02 1020.40 1020.39 1020.31 1020.43 1020.50 1020.65 1021.01 1021.12 1021.33 1021.39 1021.59 1021.74 1021.84 1021.99
1006.59 1006.93 1007.66 1008.48 1009.58 1010.30 1010.88 1011.46 1012.35 1013.06 1013.65 1013.86 1015.16 1015.06 1015.64 1014.85 1015.16 1016.16 1016.87 1016.93 1017.47 1017.79 1018.25 1018.88 1019.36 1019.90 1020.19 1019.98 1020.18 1020.44 1021.01 1021.12 1020.99 1020.79 1021.05 1021.28 1021.39 1021.38 1021.39 1021.52 1021.62 1021.75 1022.03
1006.36 1006.67 1007.18 1008.16 1009.26 1009.94 1010.68 1011.52 1012.55 1013.23 1013.26 1014.38 1014.38 1015.54 1016.90 1015.58 1015.56 1016.75 1017.02 1016.90 1017.52 1017.87 1018.53 1019.09 1019.60 1019.82 1020.30 1020.37 1019.98 1020.11 1020.65 1021.08 1021.43 1021.42 1021.35 1021.45 1021.55 1021.67 1021.75 1021.73 1021.79 1021.84 1022.02
1005.64 1005.92 1006.72 1007.81 1008.79 1009.60 1010.05 1010.81 1011.82 1012.38 1012.85 1013.04 1014.81 1016.44 1017.04 1016.15 1016.24 1017.10 1016.98 1017.00 1017.62 1017.95 1018.66 1019.11 1019.75 1019.75 1019.90 1020.38 1020.30 1020.25 1020.30 1020.63 1021.39 1022.22 1021.99 1021.72 1021.68 1021.92 1022.07 1021.97 1022.07 1022.10 1022.18
1004.58 1005.29 1006.26 1007.29 1008.43 1008.99 1009.76 1010.36 1011.27 1012.06 1012.49 1013.33 1014.87 1017.04 1017.43 1016.89 1016.88 1016.87 1016.85 1017.22 1017.88 1018.16 1018.83 1019.34 1019.88 1020.02 1019.92 1020.19 1020.37 1020.60 1020.63 1020.81 1021.44 1021.85 1022.67 1022.39 1022.18 1022.30 1022.29 1022.22 1022.18 1022.45 1022.37
1003.31 1004.53 1005.75 1006.94 1008.03 1008.76 1009.63 1010.39 1010.89 1011.56 1012.58 1013.23 1015.77 1017.47 1017.62 1016.67 1017.00 1016.48 1016.88 1017.64 1018.07 1018.41 1019.20 1019.58 1020.05 1020.26 1020.15 1020.36 1020.55 1020.94 1020.96 1021.44 1021.97 1022.65 1022.84 1023.09 1022.85 1022.70 1022.38 1022.29 1022.40 1022.64 1022.74
Thickness
5773 5771 5767 5762 5759 5756 5753 5751 5748 5746 5745 5744 5741 5740 5738 5736 5735 5733 5732 5730 5729 5727 5726 5725 5724 5723 5723 5721 5720 5719 5718 5717 5716 5715 5714 5714 5713 5712 5710 5709 5709 5707 5704
5778 5771 5765 5762 5758 5755 5752 5750 5747 5746 5743 5742 5740 5739 5737 5735 5734 5732 5731 5729 5727 5726 5724 5724 5723 5722 5721 5719 5718 5717 5716 5716 5716 5714 5713 5713 5712 5710 5708 5706 5704 5703 5701
5775 5770 5762 5759 5757 5754 5752 5748 5746 5744 5741 5739 5738 5737 5736 5735 5732 5731 5729 5727 5726 5724 5723 5722 5720 5719 5718 5718 5717 5716 5715 5715 5716 5715 5713 5711 5709 5706 5704 5702 5700 5698 5696
5773 5768 5761 5756 5754 5752 5749 5746 5744 5742 5739 5737 5736 5735 5734 5732 5731 5729 5728 5727 5725 5723 5721 5719 5718 5717 5716 5715 5715 5714 5714 5714 5715 5715 5712 5708 5706 5704 5701 5699 5696 5694 5693
5770 5766 5760 5754 5751 5748 5745 5744 5741 5739 5738 5736 5733 5732 5731 5729 5728 5726 5725 5724 5723 5721 5718 5717 5716 5715 5715 5714 5714 5713 5712 5712 5713 5712 5711 5708 5704 5700 5697 5695 5693 5691 5689
5763 5764 5757 5751 5748 5746 5742 5740 5739 5737 5736 5733 5731 5729 5727 5726 5724 5723 5722 5721 5720 5719 5717 5716 5715 5714 5713 5713 5712 5712 5712 5712 5711 5711 5709 5704 5700 5696 5693 5691 5690 5688 5686
5749 5760 5754 5748 5743 5742 5740 5737 5735 5735 5733 5731 5729 5726 5724 5723 5722 5720 5719 5719 5718 5717 5715 5715 5714 5713 5712 5711 5710 5710 5710 5710 5710 5708 5705 5701 5697 5693 5690 5688 5686 5685 5683
5736 5742 5745 5742 5740 5738 5737 5735 5731 5730 5730 5729 5725 5722 5721 5720 5718 5717 5716 5716 5716 5715 5713 5712 5712 5711 5710 5709 5708 5707 5707 5707 5708 5706 5702 5697 5693 5690 5686 5684 5683 5682 5680
5726 5729 5733 5733 5732 5731 5731 5730 5728 5725 5724 5723 5721 5718 5717 5717 5715 5714 5713 5713 5713 5712 5711 5710 5709 5708 5707 5705 5704 5703 5703 5703 5704 5701 5696 5691 5689 5687 5684 5682 5680 5677 5676
5715 5720 5724 5724 5723 5723 5723 5724 5723 5721 5719 5716 5715 5714 5712 5712 5712 5710 5709 5709 5709 5709 5708 5707 5707 5705 5704 5702 5701 5701 5701 5700 5697 5693 5690 5688 5686 5684 5681 5678 5675 5673 5670
5700 5706 5712 5715 5713 5714 5714 5715 5717 5715 5713 5710 5709 5708 5708 5707 5707 5706 5706 5705 5705 5705 5705 5704 5703 5702 5701 5700 5699 5698 5697 5696 5692 5687 5685 5684 5682 5679 5676 5673 5670 5667 5665
5688 5692 5697 5703 5703 5703 5707 5706 5708 5709 5709 5706 5704 5704 5704 5704 5703 5701 5700 5701 5700 5700 5701 5701 5700 5699 5698 5698 5697 5695 5693 5692 5686 5682 5679 5678 5677 5674 5671 5668 5664 5662 5659
5678 5679 5683 5690 5692 5690 5698 5700 5700 5703 5702 5703 5701 5699 5700 5699 5698 5696 5695 5695 5695 5696 5696 5697 5697 5696 5695 5694 5694 5692 5689 5687 5681 5676 5672 5673 5672 5669 5665 5660 5658 5656 5654
5660 5667 5671 5675 5676 5682 5688 5691 5692 5697 5698 5700 5698 5697 5697 5694 5693 5692 5692 5692 5692 5693 5693 5694 5693 5694 5694 5692 5690 5688 5685 5682 5676 5671 5667 5665 5664 5662 5660 5654 5652 5650 5649
5641 5651 5659 5661 5667 5667 5675 5682 5684 5691 5695 5697 5694 5692 5693 5690 5690 5690 5691 5691 5691 5691 5691 5692 5691 5689 5688 5687 5685 5683 5680 5677 5672 5666 5662 5659 5657 5656 5653 5649 5647 5645 5643
5629 5633 5642 5648 5653 5656 5664 5671 5675 5684 5688 5688 5687 5685 5685 5685 5686 5686 5685 5686 5687 5687 5686 5686 5686 5684 5682 5681 5679 5677 5674 5672 5669 5661 5658 5654 5651 5649 5647 5644 5642 5640 5638
5623 5624 5625 5636 5638 5644 5647 5654 5648 5651 5674 5680 5679 5677 5677 5678 5679 5681 5679 5678 5681 5682 5681 5679 5679 5678 5677 5675 5672 5671 5668 5666 5663 5658 5651 5649 5646 5643 5641 5638 5635 5634 5632
5617 5615 5615 5623 5627 5628 5634 5637 5638 5640 5654 5660 5670 5675 5671 5670 5671 5672 5671 5671 5673 5674 5674 5672 5671 5670 5670 5668 5666 5665 5663 5661 5658 5654 5649 5644 5641 5638 5636 5633 5630 5627 5625
5608 5608 5607 5610 5609 5612 5618 5621 5618 5621 5623 5627 5650 5666 5665 5665 5666 5664 5663 5662 5665 5666 5666 5666 5663 5664 5662 5661 5660 5658 5657 5655 5652 5648 5644 5639 5636 5633 5629 5628 5626 5623 5619
5602 5601 5599 5601 5602 5599 5604 5606 5604 5607 5625 5619 5622 5641 5654 5656 5659 5658 5656 5654 5656 5658 5657 5656 5654 5655 5653 5653 5654 5651 5650 5649 5647 5642 5639 5635 5631 5628 5625 5621 5618 5615 5612
5595 5594 5591 5591 5591 5589 5590 5596 5598 5608 5610 5604 5603 5617 5635 5645 5648 5649 5647 5649 5648 5649 5649 5647 5646 5644 5643 5645 5644 5640 5640 5641 5639 5637 5633 5629 5626 5622 5619 5615 5611 5608 5604
5584 5584 5583 5582 5578 5578 5579 5584 5587 5591 5595 5603 5598 5597 5608 5630 5637 5637 5637 5643 5641 5642 5642 5639 5638 5636 5635 5637 5637 5635 5628 5627 5628 5629 5625 5622 5619 5616 5613 5609 5606 5601 5597
5573 5571 5572 5569 5565 5566 5565 5565 5567 5575 5587 5592 5600 5591 5585 5611 5623 5622 5627 5635 5634 5636 5634 5632 5630 5631 5627 5628 5632 5632 5627 5623 5617 5617 5616 5613 5611 5608 5605 5602 5598 5594 5589
5564 5564 5564 5558 5552 5552 5555 5558 5561 5574 5584 5597 5589 5585 5582 5599 5608 5610 5620 5626 5626 5629 5627 5626 5623 5625 5625 5622 5623 5625 5623 5620 5611 5603 5604 5604 5603 5599 5595 5592 5589 5584 5580
5557 5554 5551 5545 5537 5540 5541 5546 5553 5568 5578 5582 5571 5567 5571 5589 5596 5605 5613 5617 5618 5621 5619 5618 5615 5616 5619 5618 5617 5616 5615 5611 5605 5600 5590 5590 5590 5586 5584 5581 5579 5573 5570
5553 5547 5539 5531 5523 5522 5521 5530 5545 5562 5566 5574 5562 5553 5559 5580 5587 5601 5604 5606 5609 5611 5608 5608 5607 5607 5610 5610 5608 5605 5605 5600 5593 5585 5580 5576 5575 5574 5573 5571 5566 5561 5556